Location: *
(60.1759°S, 155.0663°W)
Time: 04:02:49
(UTC+00:00)

USA 81 - Pass Details

Date: 17 September 2019
Orbit: 785 x 788 km, 85.0° (Epoch: 08 October)

Event Time Altitude Azimuth Distance (km) Brightness Sun altitude
Rises 14:28:08 0° 191° (S) 3,333 7.5 -14.9°
Reaches altitude 10° 14:30:37 10° 198° (SSW) 2,397 6.6 -14.6°
Maximum altitude 14:35:37 41° 265° (W) 1,160 4.5 -14.0°
Drops below altitude 10° 14:40:35 10° 334° (NNW) 2,371 6.1 -13.4°
Enters shadow 14:41:13 - 336° (NNW) 2,603 6.3 -13.3°
